Location: Mahannah Oil Field
(37.4664°N, 96.6003°W)
Time: 05:54:08
(UTC+00:00)

Transit 2A Rocket - Pass Details

Date: 28 January 2021
Orbit: 594 x 909 km, 66.7° (Epoch: 03 March)

Event Time Altitude Azimuth Distance (km) Brightness Sun altitude
Rises 18:06:59 0° 232° (SW) 3,351 8.6 34.0°
Reaches altitude 10° 18:09:46 10° 242° (WSW) 2,370 7.9 34.1°
Maximum altitude 18:14:34 31° 305° (NW) 1,298 6.1 34.2°
Drops below altitude 10° 18:19:01 10° 7° (N) 2,192 7.0 34.3°
Sets 18:21:31 0° 18° (NNE) 3,061 7.7 34.4°
